2014-12-01 00:03:23 r, 17.29m,0000000010Hz,0000043114c,0000000.094s,-003.6C,00002195
2014-12-01 00:13:23 r, 17.30m,0000000011Hz,0000043295c,0000000.094s,-003.9C,00002195
2014-12-01 00:23:23 r, 17.31m,0000000010Hz,0000043883c,0000000.095s,-003.9C,00002195
2014-12-01 00:33:23 r, 17.31m,0000000010Hz,0000043953c,0000000.095s,-003.9C,00002195
2014-12-01 00:43:23 r, 17.31m,0000000010Hz,0000043664c,0000000.095s,-004.2C,00002195
2014-12-01 00:53:23 r, 17.32m,0000000010Hz,0000044235c,0000000.096s,-004.2C,00002195
2014-12-01 01:03:23 r, 17.34m,0000000010Hz,0000044890c,0000000.097s,-004.2C,00002195
2014-12-01 01:13:23 r, 17.35m,0000000010Hz,0000045101c,0000000.098s,-004.6C,00002195
2014-12-01 01:23:23 r, 17.36m,0000000010Hz,0000045884c,0000000.100s,-004.6C,00002195
2014-12-01 01:33:23 r, 17.36m,0000000010Hz,0000046019c,0000000.100s,-004.9C,00002195
2014-12-01 01:43:23 r, 17.37m,0000000010Hz,0000046137c,0000000.100s,-004.9C,00002195
2014-12-01 01:53:23 r, 17.39m,0000000010Hz,0000047014c,0000000.102s,-004.9C,00002195
2014-12-01 02:03:23 r, 17.41m,0000000010Hz,0000047889c,0000000.104s,-005.2C,00002195
2014-12-01 02:13:23 r, 17.41m,0000000009Hz,0000047867c,0000000.104s,-005.2C,00002195
2014-12-01 02:23:23 r, 17.41m,0000000009Hz,0000048068c,0000000.104s,-004.9C,00002195
2014-12-01 02:33:23 r, 17.43m,0000000010Hz,0000048644c,0000000.106s,-004.9C,00002195
2014-12-01 02:43:23 r, 17.41m,0000000010Hz,0000047937c,0000000.104s,-004.9C,00002195
2014-12-01 02:53:23 r, 17.39m,0000000010Hz,0000047206c,0000000.102s,-004.9C,00002195
2014-12-01 03:03:23 r, 17.42m,0000000010Hz,0000048192c,0000000.105s,-004.9C,00002195
2014-12-01 03:13:23 r, 17.43m,0000000009Hz,0000048865c,0000000.106s,-004.9C,00002195
2014-12-01 03:23:23 r, 17.44m,0000000010Hz,0000048999c,0000000.106s,-004.9C,00002195
2014-12-01 03:33:23 r, 17.43m,0000000009Hz,0000048878c,0000000.106s,-005.2C,00002195
2014-12-01 03:43:23 r, 17.43m,0000000009Hz,0000048887c,0000000.106s,-005.2C,00002195
2014-12-01 03:53:23 r, 17.44m,0000000009Hz,0000048956c,0000000.106s,-005.2C,00002195
2014-12-01 04:03:23 r, 17.44m,0000000009Hz,0000049018c,0000000.106s,-005.2C,00002195
2014-12-01 04:13:23 r, 17.44m,0000000010Hz,0000049002c,0000000.106s,-005.2C,00002195
2014-12-01 04:23:23 r, 17.44m,0000000009Hz,0000049025c,0000000.106s,-005.2C,00002195
2014-12-01 04:33:23 r, 17.44m,0000000009Hz,0000049309c,0000000.107s,-005.5C,00002195
2014-12-01 04:43:23 r, 17.45m,0000000010Hz,0000049891c,0000000.108s,-005.5C,00002195
2014-12-01 04:53:23 r, 17.47m,0000000009Hz,0000050748c,0000000.110s,-005.5C,00002195
2014-12-01 05:03:23 r, 17.47m,0000000009Hz,0000050844c,0000000.110s,-005.5C,00002195
2014-12-01 05:13:23 r, 17.47m,0000000009Hz,0000050866c,0000000.110s,-005.2C,00002195
2014-12-01 05:23:23 r, 17.48m,0000000009Hz,0000050955c,0000000.111s,-005.2C,00002195
2014-12-01 05:33:23 r, 17.46m,0000000009Hz,0000050242c,0000000.109s,-005.2C,00002195
2014-12-01 05:43:23 r, 17.47m,0000000009Hz,0000050864c,0000000.110s,-005.2C,00002195
2014-12-01 05:53:23 r, 17.47m,0000000009Hz,0000050908c,0000000.110s,-005.2C,00002195
2014-12-01 06:03:23 r, 17.47m,0000000009Hz,0000050811c,0000000.110s,-005.2C,00002195
2014-12-01 06:13:23 r, 17.47m,0000000009Hz,0000050663c,0000000.110s,-005.2C,00002195
2014-12-01 06:23:23 r, 17.46m,0000000009Hz,0000050115c,0000000.109s,-005.2C,00002195
2014-12-01 06:33:23 r, 17.46m,0000000009Hz,0000049931c,0000000.108s,-005.2C,00002195
2014-12-01 06:43:23 r, 17.39m,0000000009Hz,0000047209c,0000000.102s,-005.2C,00002195
2014-12-01 06:53:23 r, 17.19m,0000000011Hz,0000039377c,0000000.085s,-005.5C,00002195
2014-12-01 07:03:23 r, 16.64m,0000000020Hz,0000023563c,0000000.051s,-005.5C,00002195
2014-12-01 07:13:23 r, 15.50m,0000000055Hz,0000008236c,0000000.018s,-005.9C,00002195
2014-12-01 07:23:23 r, 13.79m,0000000270Hz,0000000000c,0000000.000s,-005.5C,00002195
2014-12-01 07:33:23 r, 11.87m,0000001588Hz,0000000000c,0000000.000s,-005.5C,00002195
2014-12-01 07:43:23 r, 10.12m,0000007983Hz,0000000000c,0000000.000s,-005.5C,00002195
2014-12-01 07:53:23 r, 08.68m,0000030140Hz,0000000000c,0000000.000s,-005.5C,00002195
2014-12-01 08:03:23 r, 07.61m,0000080489Hz,0000000000c,0000000.000s,-005.5C,00002195
2014-12-01 08:13:23 r, 06.85m,0000162401Hz,0000000000c,0000000.000s,-005.2C,00002195
2014-12-01 08:23:23 r, 06.31m,0000266286Hz,0000000000c,0000000.000s,-005.2C,00002195
2014-12-01 08:33:23 r, 05.93m,0000378599Hz,0000000000c,0000000.000s,-004.9C,00002195
2014-12-01 08:43:23 r, 00.00m,0000493301Hz,0000000000c,0000000.000s,-004.9C,00002195
2014-12-01 08:53:23 r, 00.00m,0000559680Hz,0000000000c,0000000.000s,-004.6C,00002195
2014-12-01 09:03:23 r, 00.00m,0000559837Hz,0000000000c,0000000.000s,-004.2C,00002195
2014-12-01 09:13:23 r, 00.00m,0000559881Hz,0000000000c,0000000.000s,-003.6C,00002195
2014-12-01 09:23:23 r, 00.00m,0000559986Hz,0000000000c,0000000.000s,-002.6C,00002195
2014-12-01 09:33:23 r, 00.00m,0000560273Hz,0000000000c,0000000.000s,-001.3C,00002195
2014-12-01 09:43:23 r, 00.00m,0000560423Hz,0000000000c,0000000.000s, 000.1C,00002195
2014-12-01 09:53:23 r, 00.00m,0000560695Hz,0000000000c,0000000.000s, 000.9C,00002195
2014-12-01 10:03:23 r, 00.00m,0000560805Hz,0000000000c,0000000.000s, 001.6C,00002195
2014-12-01 10:13:23 r, 00.00m,0000560729Hz,0000000000c,0000000.000s, 001.9C,00002195
2014-12-01 10:23:23 r, 00.00m,0000560845Hz,0000000000c,0000000.000s, 002.5C,00002195
2014-12-01 10:33:23 r, 00.00m,0000560988Hz,0000000000c,0000000.000s, 002.5C,00002195
2014-12-01 10:43:23 r, 00.00m,0000561009Hz,0000000000c,0000000.000s, 002.9C,00002195
2014-12-01 10:53:23 r, 00.00m,0000561084Hz,0000000000c,0000000.000s, 002.9C,00002195
2014-12-01 11:03:23 r, 00.00m,0000561090Hz,0000000000c,0000000.000s, 003.2C,00002195
2014-12-01 11:13:23 r, 00.00m,0000561116Hz,0000000000c,0000000.000s, 003.2C,00002195
2014-12-01 11:23:23 r, 00.00m,0000561034Hz,0000000000c,0000000.000s, 003.2C,00002195
2014-12-01 11:33:23 r, 00.00m,0000561080Hz,0000000000c,0000000.000s, 003.2C,00002195
2014-12-01 11:43:23 r, 00.00m,0000561219Hz,0000000000c,0000000.000s, 003.8C,00002195
2014-12-01 11:53:23 r, 00.00m,0000561135Hz,0000000000c,0000000.000s, 003.8C,00002195
2014-12-01 12:03:23 r, 00.00m,0000561194Hz,0000000000c,0000000.000s, 003.8C,00002195
2014-12-01 12:13:23 r, 00.00m,0000561275Hz,0000000000c,0000000.000s, 004.1C,00002195
2014-12-01 12:23:23 r, 00.00m,0000561267Hz,0000000000c,0000000.000s, 004.1C,00002195
2014-12-01 12:33:23 r, 00.00m,0000561301Hz,0000000000c,0000000.000s, 004.1C,00002195
2014-12-01 12:43:23 r, 00.00m,0000561316Hz,0000000000c,0000000.000s, 004.5C,00002195
2014-12-01 12:53:23 r, 00.00m,0000561379Hz,0000000000c,0000000.000s, 004.5C,00002195
2014-12-01 13:03:23 r, 00.00m,0000561411Hz,0000000000c,0000000.000s, 004.5C,00002195
2014-12-01 13:13:23 r, 00.00m,0000561463Hz,0000000000c,0000000.000s, 004.8C,00002195
2014-12-01 13:23:23 r, 00.00m,0000561488Hz,0000000000c,0000000.000s, 004.5C,00002195
2014-12-01 13:33:23 r, 00.00m,0000561555Hz,0000000000c,0000000.000s, 005.1C,00002195
2014-12-01 13:43:23 r, 00.00m,0000561594Hz,0000000000c,0000000.000s, 006.1C,00002195
2014-12-01 13:53:23 r, 00.00m,0000561581Hz,0000000000c,0000000.000s, 005.8C,00002195
2014-12-01 14:03:23 r, 00.00m,0000561452Hz,0000000000c,0000000.000s, 005.4C,00002195
2014-12-01 14:13:23 r, 00.00m,0000561356Hz,0000000000c,0000000.000s, 004.8C,00002195
2014-12-01 14:23:23 r, 00.00m,0000561298Hz,0000000000c,0000000.000s, 004.5C,00002195
2014-12-01 14:33:23 r, 00.00m,0000561289Hz,0000000000c,0000000.000s, 005.1C,00002195
2014-12-01 14:43:23 r, 00.00m,0000561281Hz,0000000000c,0000000.000s, 004.8C,00002195
2014-12-01 14:53:23 r, 00.00m,0000561309Hz,0000000000c,0000000.000s, 004.5C,00002195
2014-12-01 15:03:23 r, 00.00m,0000561269Hz,0000000000c,0000000.000s, 004.5C,00002195
2014-12-01 15:13:23 r, 00.00m,0000561406Hz,0000000000c,0000000.000s, 004.5C,00002195
2014-12-01 15:23:23 r, 00.00m,0000561243Hz,0000000000c,0000000.000s, 004.5C,00002195
2014-12-01 15:33:23 r, 00.00m,0000561134Hz,0000000000c,0000000.000s, 004.5C,00002195
2014-12-01 15:43:23 r, 00.00m,0000561243Hz,0000000000c,0000000.000s, 004.5C,00002195
2014-12-01 15:53:23 r, 00.00m,0000561194Hz,0000000000c,0000000.000s, 004.1C,00002195
2014-12-01 16:03:23 r, 05.88m,0000393798Hz,0000000000c,0000000.000s, 003.8C,00002195
2014-12-01 16:13:23 r, 06.30m,0000268849Hz,0000000000c,0000000.000s, 003.8C,00002195
2014-12-01 16:23:23 r, 07.02m,0000139238Hz,0000000000c,0000000.000s, 003.5C,00002195
2014-12-01 16:33:23 r, 07.78m,0000068704Hz,0000000000c,0000000.000s, 003.2C,00002195
2014-12-01 16:43:23 r, 08.91m,0000024379Hz,0000000000c,0000000.000s, 002.9C,00002195
2014-12-01 16:53:23 r, 10.42m,0000006075Hz,0000000000c,0000000.000s, 002.9C,00002195
2014-12-01 17:03:23 r, 12.23m,0000001144Hz,0000000000c,0000000.000s, 002.9C,00002195
2014-12-01 17:13:23 r, 14.06m,0000000212Hz,0000000000c,0000000.000s, 002.9C,00002195
2014-12-01 17:23:23 r, 15.19m,0000000074Hz,0000006214c,0000000.013s, 002.9C,00002195
2014-12-01 17:33:23 r, 15.62m,0000000050Hz,0000009242c,0000000.020s, 002.9C,00002195
2014-12-01 17:43:23 r, 15.92m,0000000038Hz,0000012150c,0000000.026s, 002.5C,00002195
2014-12-01 17:53:23 r, 16.00m,0000000036Hz,0000013096c,0000000.028s, 002.5C,00002195
2014-12-01 18:03:23 r, 16.04m,0000000033Hz,0000013634c,0000000.030s, 002.5C,00002195
2014-12-01 18:13:23 r, 16.03m,0000000034Hz,0000013468c,0000000.029s, 002.5C,00002195
2014-12-01 18:23:23 r, 16.04m,0000000034Hz,0000013565c,0000000.029s, 002.5C,00002195
2014-12-01 18:33:23 r, 15.94m,0000000037Hz,0000012390c,0000000.027s, 002.5C,00002195
2014-12-01 18:43:23 r, 15.88m,0000000039Hz,0000011682c,0000000.025s, 002.5C,00002195
2014-12-01 18:53:23 r, 15.70m,0000000046Hz,0000009938c,0000000.022s, 002.5C,00002195
2014-12-01 19:03:23 r, 15.79m,0000000042Hz,0000010766c,0000000.023s, 002.5C,00002195
2014-12-01 19:13:23 r, 15.73m,0000000046Hz,0000010217c,0000000.022s, 002.5C,00002195
2014-12-01 19:23:23 r, 15.98m,0000000036Hz,0000012833c,0000000.028s, 002.5C,00002195
2014-12-01 19:33:23 r, 15.79m,0000000043Hz,0000010860c,0000000.024s, 002.5C,00002195
2014-12-01 19:43:23 r, 15.82m,0000000042Hz,0000011103c,0000000.024s, 002.5C,00002195
2014-12-01 19:53:23 r, 15.97m,0000000036Hz,0000012674c,0000000.028s, 002.5C,00002195
2014-12-01 20:03:23 r, 16.00m,0000000035Hz,0000013158c,0000000.029s, 002.5C,00002195
2014-12-01 20:13:23 r, 15.94m,0000000037Hz,0000012429c,0000000.027s, 002.5C,00002195
2014-12-01 20:23:23 r, 15.98m,0000000036Hz,0000012915c,0000000.028s, 002.5C,00002195
2014-12-01 20:33:23 r, 15.79m,0000000043Hz,0000010815c,0000000.023s, 002.5C,00002195
2014-12-01 20:43:23 r, 15.79m,0000000042Hz,0000010832c,0000000.024s, 002.5C,00002195
2014-12-01 20:53:23 r, 15.60m,0000000050Hz,0000009124c,0000000.020s, 002.5C,00002195
2014-12-01 21:03:23 r, 16.00m,0000000035Hz,0000013149c,0000000.029s, 002.5C,00002195
2014-12-01 21:13:23 r, 16.13m,0000000032Hz,0000014664c,0000000.032s, 002.5C,00002195
2014-12-01 21:23:23 r, 16.04m,0000000034Hz,0000013568c,0000000.029s, 002.5C,00002195
2014-12-01 21:33:23 r, 16.17m,0000000030Hz,0000015243c,0000000.033s, 002.5C,00002195
2014-12-01 21:43:23 r, 16.11m,0000000031Hz,0000014504c,0000000.031s, 002.9C,00002195
2014-12-01 21:53:23 r, 16.11m,0000000032Hz,0000014431c,0000000.031s, 002.9C,00002195
2014-12-01 22:03:23 r, 16.31m,0000000026Hz,0000017442c,0000000.038s, 002.9C,00002195
2014-12-01 22:13:23 r, 16.36m,0000000025Hz,0000018224c,0000000.040s, 002.5C,00002195
2014-12-01 22:23:23 r, 16.13m,0000000031Hz,0000014706c,0000000.032s, 002.5C,00002195
2014-12-01 22:33:23 r, 16.13m,0000000031Hz,0000014770c,0000000.032s, 002.9C,00002195
2014-12-01 22:43:23 r, 15.88m,0000000039Hz,0000011741c,0000000.025s, 002.5C,00002195
2014-12-01 22:53:23 r, 16.11m,0000000032Hz,0000014506c,0000000.031s, 002.9C,00002195
2014-12-01 23:03:23 r, 16.23m,0000000028Hz,0000016202c,0000000.035s, 002.9C,00002195
2014-12-01 23:13:23 r, 16.79m,0000000017Hz,0000027188c,0000000.059s, 002.9C,00002195
2014-12-01 23:23:23 r, 16.78m,0000000017Hz,0000026844c,0000000.058s, 002.5C,00002195
2014-12-01 23:33:23 r, 16.75m,0000000017Hz,0000026093c,0000000.057s, 002.5C,00002195
2014-12-01 23:43:23 r, 16.61m,0000000020Hz,0000022888c,0000000.050s, 002.5C,00002195
2014-12-01 23:53:23 r, 16.79m,0000000017Hz,0000027110c,0000000.059s, 002.5C,00002195
